sat.trackr.live / text

‹ back to catalog

STARLINK-36806

NORAD 67965 · 2026-038E

PAYLOAD ACTIVE UNKNOWN

§ Identity

Operator
Country
US
Launch date
2026-02-25
Launch site
AFWTR
Launch vehicle
Mass (kg)
RCS (m²)

Purposes: comms

External: N2YO · Heavens-Above · Gunter

§ Orbital elements

Epoch: 2026-05-25T00:22:38.152704Z

Period
93.91 min
Inclination
97.2836°
Eccentricity
0.0001940
Mean motion
15.33454470 rev/d
Perigee alt
464.2 km
Apogee alt
466.8 km
Semi-major
6,843.7 km
B*
2.4859e-4
RAAN
155.0039°
Arg perigee
113.0255°
Mean anomaly
247.1193°
Rev number
1,493

§ Raw data

STARLINK-368061 67965U 26038E   26145.01571936  .00007961  00000+0  24859-3 0  99952 67965  97.2836 155.0039 0001940 113.0255 247.1193 15.33454470 14934

JSON: /api/v1/satellites/67965 · /tle

For live sub-satellite position, see the globe view (requires WebGL).

§ Visibility from observer

Set your observer location to see the next 7 days of passes ≥ 10°. The values pass through the URL so the page stays shareable.

No JS? Fill the form by hand. The geolocation button needs JavaScript.